Find Kosmos-2371

NORAD ID: 26394 Int'l Des: 2000-036 Owner: VKSR Country: RU operational
HEOCIRCULARGSO

Current View

Loading 3D Globe...

About Kosmos-2371

Kosmos-2371 (NORAD 26394) is a satellite launched Jul 4, 2000 by VKSR of RU. It operates in HEO, CIRCULAR, GSO orbit with a mass of 2100.00 kg.

Upcoming Passes

Passes for default location (London). Set your location on the main map for personalized predictions.

Altitude History

Loading altitude history...

Two-Line Element Set

1 26394U 00036A 26195.03941730 -.00000076 00000-0 00000-0 0 9997
2 26394 14.0057 7.3077 0002777 167.1710 201.9104 1.00274940 95315
Epoch: Jul 14, 2026 • Age: 20 hours

Current Status

Altitude 35796.4 km
Apogee / Perigee N/A
Velocity 3.07 km/s
Sub-Earth Point -11.25°S, 71.15°E
Launch Date Jul 4, 2000
Age 26 years
Type other

Technical Details

Classification Payload
Mass 2100.00 kg
Dry Mass 2000.00 kg
Total Mass 2100.00 kg
Length 5.50 m
Diameter 2.50 m
Span 9.00 m
Shape Cyl + 2 Pan
Manufacturer NPOPMR
Bus Type Geizer
Phase Status In Orbit
Owner/State VKSR/RU

Most Searched